Helicity
70 140 119 110 91 96 111 121 118 100 94 97 136 142 148 127 140 95 116 90 86 92
111 120 120 95 83 102 98 100 102 93 98 99 115 124 117 116 100 72 98 108 98 94
120 112 89 77 91 96 104 109 99 88 88 97 115 106 118 105 67 61 104 99 96 103
123 97 86 91 101 117 107 93 88 88 92 94 106 123 117 63 67 86 98 93 92 115
116 100 90 107 104 103 92 93 92 98 100 103 123 116 49 104 148 120 92 109 113 106
102 91 97 96 94 106 112 111 103 112 102 124 138 109 91 132 144 131 124 116 106 85
99 100 93 99 119 136 132 121 123 111 136 152 123 111 112 115 103 106 100 88 73 85
111 100 109 126 128 136 129 125 117 130 145 144 140 136 119 105 86 78 67 70 81 84
119 114 118 125 132 130 117 110 138 135 157 133 156 171 132 83 63 57 65 77 72 80
125 123 116 124 126 124 128 134 134 137 139 127 158 139 110 71 39 63 74 68 70 77
128 122 121 123 117 127 128 135 123 148 129 124 164 128 97 51 46 61 63 65 69 68
125 121 116 117 126 132 139 129 133 141 131 118 135 126 85 48 55 60 52 63 64 81
112 111 120 123 138 137 130 125 129 135 131 161 122 136 85 57 58 55 53 55 67 83
108 119 120 126 131 131 114 136 147 137 127 124 112 110 94 71 53 54 59 60 60 65
Wind_Speed
43 48 52 55 60 64 67 68 71 72 69 65 56 56 62 61 61 56 54 57 57 57
43 48 54 58 59 61 65 69 74 75 72 66 57 60 60 61 62 56 52 52 51 52
43 48 53 56 60 62 66 73 78 77 73 68 63 63 59 61 57 54 48 47 52 52
44 50 55 58 59 62 68 75 77 76 74 70 65 61 58 57 56 49 44 48 52 55
47 53 57 58 59 61 68 73 76 74 71 67 65 63 62 53 47 43 47 51 53 59
50 54 59 58 58 62 68 73 72 70 69 69 63 61 50 46 45 46 48 50 57 62
53 58 58 58 59 62 67 71 69 67 67 64 58 54 48 42 43 45 50 55 59 59
55 58 57 57 59 64 67 67 65 65 62 59 53 48 44 42 45 50 56 57 56 58
56 57 57 58 61 65 65 63 62 64 58 53 45 44 42 46 50 53 55 56 59 60
56 57 58 60 62 65 66 62 62 55 49 45 41 41 43 47 52 52 53 56 58 60
55 58 60 61 65 65 66 65 58 48 44 39 38 40 43 49 49 50 53 55 56 57
56 61 63 64 65 64 65 61 52 43 40 37 36 38 43 49 49 49 53 54 54 57
56 60 62 65 62 60 60 54 47 41 37 36 34 36 40 45 47 50 52 53 54 53
56 62 64 62 57 57 57 50 44 40 34 32 33 35 36 40 45 48 52 54 54 52
Wind_Direction
354 349 349 349 346 343 342 342 341 341 340 338 335 334 334 334 334 332 331 330 332 332
352 349 346 346 347 346 344 343 342 341 340 338 335 333 333 333 333 330 329 329 331 332
351 349 347 346 345 345 344 342 342 342 341 338 335 332 331 332 332 331 329 330 331 329
349 346 345 344 344 344 343 343 343 342 342 340 337 336 333 331 331 331 330 330 329 329
344 343 341 342 343 343 343 344 343 343 344 344 342 339 334 334 337 336 333 332 331 329
340 340 339 340 340 341 341 342 344 344 344 344 343 341 343 340 340 338 337 335 332 331
337 338 338 339 339 340 341 342 343 344 345 346 346 345 346 346 343 342 338 336 334 335
336 337 338 338 338 339 340 341 343 343 345 347 349 351 352 349 345 341 337 337 339 338
336 338 337 338 338 339 340 342 343 343 345 347 352 355 354 349 344 340 340 340 340 341
337 337 337 337 338 339 340 343 343 345 348 349 353 356 353 349 345 343 343 342 343 344
337 336 336 336 336 338 339 342 344 346 349 351 354 354 352 349 347 346 345 346 347 348
336 335 335 336 336 337 339 342 345 347 349 350 352 355 352 350 348 348 348 350 351 351
336 335 336 336 337 339 341 344 346 346 348 350 352 354 354 352 351 349 350 353 354 357
336 336 336 337 339 340 342 345 346 346 346 349 351 352 354 354 352 351 351 354 356 358